Regional Weather Roundup
Issued by NWS

Home | Current Version | Previous Version | Graphics & Text | Print | Product List | Glossary On
Versions: 1 2 3 4 5 6 7 8 9 10 11 12 13 14 15 16 17 18 19 20 21 22 23 24 25 26 27 28 29 30 31 32 33 34 35 36 37 38 39 40 41 42 43 44 45 46 47 48 49 50
000
ASUS43 KDMX 160706
RWRIA

WEATHER ROUNDUP FOR IOWA
NATIONAL WEATHER SERVICE DES MOINES IA
100 AM CST SAT DEC 16 2017

NOTE: "FAIR" INDICATES FEW OR NO CLOUDS BELOW 12,000 FEET WITH NO
SIGNIFICANT WEATHER AND/OR OBSTRUCTIONS TO VISIBILITY.

* - THESE STATIONS ARE NOT NWS STATIONS...THUS NOT UNDER NWS
QUALITY CONTROL.  THEY ALSO DO NOT REPORT WEATHER SUCH
AS PRECIPITATION OR FOG.

IAZ001>003-012>014-020>022-031>034-043>046-160800-
   NORTHWEST IOWA

CITY           SKY/WX    TMP DP  RH WIND       PRES   REMARKS
CARROLL *      MOCLDY    37  25  60 SW17      29.68S WCI  28
CHEROKEE *     CLOUDY    31  25  79 S5        29.65S WCI  26
DENISON *      CLOUDY    36  23  60 SW7       29.71S WCI  30
LE MARS *      CLOUDY    30  25  80 S7        29.65S WCI  23
ORANGE CITY *  CLOUDY    34  28  80 S5        29.64R WCI  30
SHELDON *      PTCLDY    30  27  86 CALM      29.62S
SIOUX CITY     CLOUDY    27  21  78 E7        29.67S WCI  19
SPENCER        CLOUDY    34  26  72 SW6       29.63F WCI  29
STORM LAKE *   CLOUDY    34  23  64 SW10      29.65F WCI  26
$$

IAZ055>058-069>071-079>083-090>094-160800-
   SOUTHWEST IOWA

CITY           SKY/WX    TMP DP  RH WIND       PRES   REMARKS
ATLANTIC *     CLEAR    N/A N/A N/A S9        29.73S
AUDUBON *      CLEAR     36  25  64 SW8       29.71S WCI  29
CLARINDA *       N/A     34  25  69 CALM      29.80
COUNCIL BLFS * CLEAR     41  23  48 SW14      29.72S
CRESTON *      CLEAR     37  25  60 SW18G24   29.76F WCI  27
HARLAN  *      CLOUDY    32  23  69 S6        29.75S WCI  26
LAMONI         CLEAR     36  24  62 S14       29.79F WCI  27
RED OAK *      CLEAR     36  25  64 S7        29.76R WCI  30
SHENANDOAH *   CLEAR     39  25  56 SW13      29.77S WCI  32
$$

IAZ047>049-059>061-072>074-084-160800-
   CENTRAL IOWA

CITY           SKY/WX    TMP DP  RH WIND       PRES   REMARKS
AMES           CLOUDY    33  24  69 SW9       29.72F WCI  25
ANKENY *       PTCLDY    36  23  60 SW8G15    29.75S WCI  29
BOONE *        CLEAR     36  23  60 SW10      29.70S WCI  28
CHARITON *     CLEAR     34  23  64 S10       29.77F WCI  26
DES MOINES     PTCLDY    36  24  62 SW14      29.74F WCI  27
GRINNELL*      PTCLDY    33  24  68 S12       29.76S WCI  24
KNOXVILLE *    CLOUDY    39  23  52 SW16G28   29.75S WCI  30
MARSHALLTOWN   CLOUDY    34  23  64 SW13      29.72F WCI  25
NEWTON *       CLOUDY    37  23  56 SW14      29.75S WCI  29
PELLA *        CLOUDY    39  25  55 SW13      29.77F WCI  32
PERRY *          N/A     30  21  69 S10       29.71S WCI  21
$$

IAZ004>006-015-016-023>025-035-036-160800-
   NORTH CENTRAL IOWA

CITY           SKY/WX    TMP DP  RH WIND       PRES   REMARKS
ALGONA *       CLOUDY    34  25  69 SW9       29.64F WCI  26
CLARION *      CLOUDY    30  23  74 S10       29.66F WCI  21
ESTHERVILLE    CLOUDY    34  27  75 SW13      29.62F WCI  25
FORT DODGE *   CLOUDY    33  23  66 S9        29.67F WCI  25
MASON CITY     CLOUDY    32  23  69 S7        29.67F WCI  26
FOREST CITY *    N/A     34  27  75 S7        29.65F WCI  28
WEBSTER CITY * CLOUDY    32  23  69 S13       29.66F WCI  22
IOWA FALLS *     N/A     33  25  71 S10       29.71S WCI  25
$$

IAZ007>011-017>019-026>030-037>042-050>054-066-160800-
   NORTHEAST IOWA

CITY           SKY/WX    TMP DP  RH WIND       PRES   REMARKS
CEDAR RAPIDS   PTCLDY    32  22  66 S13       29.75F WCI  22
CHARLES CITY * CLOUDY    34  25  69 S10       29.69F WCI  26
CLINTON *      CLOUDY    34  22  61 S13       29.81F WCI  25
DECORAH *      CLOUDY    34  25  69 VRB7G14   29.68F WCI  28
DUBUQUE        CLOUDY    33  23  66 SW12      29.76F WCI  24
MONTICELLO *   CLOUDY    34  23  64 S7        29.76F WCI  28
OELWEIN *      CLOUDY    32  25  74 S9        29.73S WCI  24
WATERLOO       PTCLDY    33  22  63 S12       29.72F WCI  24
$$

IAZ064-065-067-068-078-160800-
   EAST CENTRAL IOWA

CITY           SKY/WX    TMP DP  RH WIND       PRES   REMARKS
DAVENPORT      CLOUDY    34  22  61 S13       29.83F WCI  25
IOWA CITY      CLOUDY    35  23  61 S8        29.80F WCI  29
MT. PLEASANT * CLOUDY    34  23  63 S16       29.84F WCI  24
MUSCATINE *    CLOUDY    37  23  56 S14G23    29.82F WCI  29
QUAD CITIES    CLOUDY    36  23  59 SW8G16    29.82F WCI  30
$$

IAZ062-063-075>077-085>089-095>099-160800-
   SOUTHEAST IOWA

CITY           SKY/WX    TMP DP  RH WIND       PRES   REMARKS
BURLINGTON     CLOUDY    33  24  69 S12       29.85F WCI  24
FAIRFIELD *    CLOUDY    36  21  55 S14       29.80F WCI  27
FORT MADISON * CLOUDY    36  25  64 S16       29.85F WCI  26
KEOKUK *       CLOUDY    34  25  69 SW14      29.86F WCI  24
OSKALOOSA *      N/A     36  24  63 SW14      29.79F WCI  27
OTTUMWA        CLOUDY    37  23  56 SW10      29.79F WCI  30
WASHINGTON *   PTCLDY    34  25  69 SW15      29.81F WCI  24
$$

ABBREVIATIONS USED IN REMARKS
   TC - TEMPERATURES IN CELSIUS
  WCI - WIND CHILL INDEX
   HX - HEAT INDEX
  VSB - VISIBILITY
$$




USA.gov is the U.S. government's official web portal to all federal, state and local government web resources and services.